Regional Weather Roundup
Issued by NWS Austin/San Antonio, TX

Home | Current Version | Previous Version | Text Only | Print | Product List | Glossary On
Versions: 1 2 3 4 5 6 7 8 9 10 11 12 13 14 15 16 17 18 19 20 21 22 23 24 25 26 27 28 29 30 31 32 33 34 35 36 37 38 39 40 41 42 43 44 45 46 47 48 49 50
000
ASUS44 KEWX 261212
RWREWX
SOUTH TEXAS REGIONAL WEATHER ROUNDUP
NATIONAL WEATHER SERVICE AUSTIN/SAN ANTONIO TX
700 AM CDT FRI MAY 26 2017

NOTE: "FAIR" INDICATED FEW OR NO CLOUDS BELOW 12,000 FEET WITH NO
SIGNIFICANT WEATHER AND/OR OBSTRUCTIONS TO VISIBILITY.

* - THESE STATIONS ARE NOT NWS OR FAA STATIONS...AND ARE NOT SUBJECT
    TO NWS AND FAA QUALITY CONTROL.

TXZ171-172-183>190-261300-
TEXAS HILL COUNTRY AND EDWARDS PLATEAU

CITY           SKY/WX    TMP DP  RH WIND       PRES   REMARKS
JUNCTION       CLOUDY    76  71  85 CALM      29.83S
6HR MIN TEMP:  75; 6HR MAX TEMP:  79;

*LLANO         CLOUDY    77  72  83 S7        29.85R
BURNET         CLOUDY    74  69  85 S7        29.85S
6HR MIN TEMP:  73; 6HR MAX TEMP:  75;

*HORSESHOE BAY NOT AVBL
*KERRVILLE     CLOUDY    73  72  96 S9        29.86R FOG
6HR MIN TEMP:  73; 6HR MAX TEMP:  74;

*FREDERICKSBRG CLOUDY    73  71  93 S6        29.85R FOG
6HR MIN TEMP:  73; 6HR MAX TEMP:  74;

*ROCKSPRINGS   CLOUDY    73  72  94 CALM      29.89R FOG
*BOERNE STAGE  CLOUDY    72  70  94 S6        29.86R VSB 1
*CASTROVILLE   CLOUDY    76  73  90 SE9       29.83S
HONDO          CLOUDY    77  73  87 SE9       29.81S
6HR MIN TEMP:  77; 6HR MAX TEMP:  77;

*UVALDE        CLOUDY    74  72  94 E3        29.81R
6HR MIN TEMP:  73; 6HR MAX TEMP:  75;

DEL RIO        CLOUDY    76  73  91 E10       29.77S
6HR MIN TEMP:  75; 6HR MAX TEMP:  79;

LAUGHLIN AFB   CLOUDY    76  73  90 E13       29.78S
6HR MIN TEMP:  74; 6HR MAX TEMP:  76;

CARRIZO SPRGS  CLOUDY    77  72  83 SE7       29.76S
*EAGLE PASS    NOT AVBL
$$

TXZ173-191>194-202-209-217>225-228-261300-
CENTRAL AND SOUTH CENTRAL TEXAS

CITY           SKY/WX    TMP DP  RH WIND       PRES   REMARKS
GEORGETOWN     CLOUDY    77  68  73 S13       29.82R
AUSTIN/BERGSTM CLOUDY    79  71  76 S13       29.82R
6HR MIN TEMP:  77; 6HR MAX TEMP:  79;

AUSTIN/MABRY   CLOUDY    77  70  79 VRB6      29.84R
6HR MIN TEMP:  75; 6HR MAX TEMP:  77;

*AUSTIN/EXEC   CLOUDY    77  72  83 S8        29.84R
*LAGO VISTA    CLOUDY    76  70  82 S9G18     29.85R
6HR MIN TEMP:  74; 6HR MAX TEMP:  76;

SAN MARCOS     CLOUDY    75  70  83 S9        29.84R
NEW BRAUNFELS  CLOUDY    77  71  82 S10       29.82R
6HR MIN TEMP:  77; 6HR MAX TEMP:  78;

RANDOLPH AFB   CLOUDY    76  75  95 S10       29.83R
6HR MIN TEMP:  76; 6HR MAX TEMP:  77;

PT SAN ANTONIO CLOUDY    76  73  90 S10       29.81R
6HR MIN TEMP:  76; 6HR MAX TEMP:  78;

SAN ANTONIO    LGT RAIN  76  71  85 S9        29.83R
6HR MIN TEMP:  75; 6HR MAX TEMP:  77; 6HR PCP: TRACE;

STINSON FIELD  CLOUDY    78  72  81 SE7       29.81R
6HR MIN TEMP:  78; 6HR MAX TEMP:  79;

*LA GRANGE     CLOUDY    78  74  86 S6        29.83R
6HR MIN TEMP:  78; 6HR MAX TEMP:  79;

*GIDDINGS      CLOUDY    76  70  82 S7        29.84R
6HR MIN TEMP:  75; 6HR MAX TEMP:  77;

*GONZALES      CLOUDY    78  75  92 S5        29.82S
6HR MIN TEMP:  78; 6HR MAX TEMP:  79;

$$

TXZ163>164-176>182-195>201-210>213-226-227-235-261300-
SOUTHEAST TEXAS

CITY           SKY/WX    TMP DP  RH WIND       PRES   REMARKS
COLLEGE STN    CLOUDY    76  71  85 S8        29.84R
6HR MIN TEMP:  72; 6HR MAX TEMP:  76;

*BRYAN         CLOUDY    75  72  88 S7        29.85R
6HR MIN TEMP:  72; 6HR MAX TEMP:  75;

*CALDWELL      NOT AVBL
*CROCKETT      CLOUDY    72  68  88 S7        29.87R
*BRENHAM       CLOUDY    78  73  83 S8        29.85R
6HR MIN TEMP:  74; 6HR MAX TEMP:  78;

HUNTSVILLE     CLOUDY    75  69  81 VRB6      29.85R
6HR MIN TEMP:  73; 6HR MAX TEMP:  75;

CONROE         CLOUDY    74  70  87 S8        29.86R
6HR MIN TEMP:  71; 6HR MAX TEMP:  75;

HOUSTON BUSH   CLOUDY    76  71  85 S9        29.87R
6HR MIN TEMP:  74; 6HR MAX TEMP:  76;

HOUSTON HOBBY  CLOUDY    76  72  87 S6        29.86R
6HR MIN TEMP:  73; 6HR MAX TEMP:  76;

*HOUSTON SW AP CLOUDY    73  71  91 CALM      29.87R
6HR MIN TEMP:  69; 6HR MAX TEMP:  73;

PEARLAND       CLOUDY    79  72  79 S6        29.88R
6HR MIN TEMP:  76; 6HR MAX TEMP:  79;

HOUSTON HOOKS  CLOUDY    76  71  85 S6        29.86R
6HR MIN TEMP:  74; 6HR MAX TEMP:  76;

ELLINGTON FLD  MOCLDY    77  75  94 S3        29.88R
SUGAR LAND     CLOUDY    77  73  87 S6        29.86R
6HR MIN TEMP:  73; 6HR MAX TEMP:  77;

*HOUSTON EXEC  CLOUDY    75  73  94 S8        29.86S FOG
*CLEVELAND MUN CLOUDY    70  69  96 SE3       29.88S FOG
6HR MIN TEMP:  66; 6HR MAX TEMP:  70;

*WHARTON       CLOUDY    77  71  81 S9        29.86R
6HR MIN TEMP:  74; 6HR MAX TEMP:  77;

*COLUMBUS      CLOUDY    76  72  85 S7        29.85R
6HR MIN TEMP:  74; 6HR MAX TEMP:  76;

*EAGLE LAKE    CLOUDY    77  75  92 S6        29.85R
6HR MIN TEMP:  75; 6HR MAX TEMP:  78;

$$

TXZ214>216-236>238-261300-
THE UPPER TEXAS COAST

CITY           SKY/WX    TMP DP  RH WIND       PRES   REMARKS
*ORANGE        MOCLDY    75  70  84 S9        29.91R
6HR MIN TEMP:  74; 6HR MAX TEMP:  75;

PORT ARTHUR    PTCLDY    73  68  84 S9        29.88R
6HR MIN TEMP:  72; 6HR MAX TEMP:  74;

GALVESTON      CLOUDY    80  74  81 S15       29.88R
6HR MIN TEMP:  78; 6HR MAX TEMP:  80;

ANGLETON       CLOUDY    80  73  79 S12       29.86R
6HR MIN TEMP:  75; 6HR MAX TEMP:  80;

*BAY CITY      CLOUDY    79  73  83 S9        29.85R
PALACIOS       CLOUDY    78  73  84 S12G22    29.84R
6HR MIN TEMP:  77; 6HR MAX TEMP:  78;

$$

TXZ229>234-239>247-261300-
TEXAS COASTAL BEND AND RIO GRANDE PLAINS

CITY           SKY/WX    TMP DP  RH WIND       PRES   REMARKS
VICTORIA       CLOUDY    79  73  82 S10       29.83R
6HR MIN TEMP:  78; 6HR MAX TEMP:  80;

*BEEVILLE      CLOUDY    79  79 100 S9        29.81R
6HR MIN TEMP:  78; 6HR MAX TEMP:  79;

ROCKPORT       CLOUDY    80  74  81 S12G17    29.81R
6HR MIN TEMP:  79; 6HR MAX TEMP:  80;

*PORT ARANSAS  CLOUDY    79  74  86 S15G22    29.80R
6HR MIN TEMP:  78; 6HR MAX TEMP:  79;

*PORT LAVACA   CLOUDY    78  75  89 CALM      29.83R
6HR MIN TEMP:  76; 6HR MAX TEMP:  78;

*INGLESIDE     CLOUDY    81  75  83 S12G21    29.80R
CORPUS CHRISTI CLOUDY    79  75  87 S14G24    29.79S
6HR MIN TEMP:  78; 6HR MAX TEMP:  80;

CORPUS NAS     CLOUDY    81  77  88 S13G22    29.80R
6HR MIN TEMP:  80; 6HR MAX TEMP:  81;

*ROBSTOWN      CLOUDY    81  74  81 S15       29.80R
6HR MIN TEMP:  79; 6HR MAX TEMP:  81;

ALICE          CLOUDY    80  73  79 S12       29.79R
6HR MIN TEMP:  78; 6HR MAX TEMP:  80;

KINGSVILLE NAS CLOUDY    80  76  87 S13       29.78S
6HR MIN TEMP:  77; 6HR MAX TEMP:  80;

COTULLA        CLOUDY    80  72  76 SE8       29.78R
6HR MIN TEMP:  78; 6HR MAX TEMP:  81;

*FAITH RANCH   CLOUDY    79  73  83 SE10G16   29.76R
LAREDO         CLOUDY    79  73  82 SE14      29.76F
6HR MIN TEMP:  78; 6HR MAX TEMP:  80;

$$

TXZ248>255-261300-
DEEP SOUTH TEXAS

CITY           SKY/WX    TMP DP  RH WIND       PRES   REMARKS
BROWNSVILLE    CLOUDY    82  76  81 SE18      29.80R
6HR MIN TEMP:  80; 6HR MAX TEMP:  82;

PORT ISABEL    CLOUDY    81  76  84 S21G30    29.78S
6HR MIN TEMP:  79; 6HR MAX TEMP:  81;

*SOUTH PADRE   NOT AVBL
HARLINGEN      CLOUDY    80  77  90 S16G25    29.78R
6HR MIN T



USA.gov is the U.S. government's official web portal to all federal, state and local government web resources and services.